This demonstration page uses our WeatherBlox Daily Observations layout. Learn more.

Left ArrowRight Arrow

39.01783, -85.05884

Hourly Observations for April 8, 2021

Temp ( °F °C ) Dew Point ( °F °C ) Humidity (%) Winds ( mph kmh ) Pressure ( in mb ) Visibility ( mi km ) Precip ( " mm )
12:52 am 00:52 Cloudy 67 19.4 56 13.3 68 68 Calm 29.8 1009 10 16.0934 0 0
1:52 am 01:52 Cloudy 68 20 53 11.7 59 59 S 8 13 29.78 1009 10 16.0934 0 0
2:52 am 02:52 Mostly Cloudy 64 17.8 53 11.7 68 68 SSE 6 9 29.76 1008 10 16.0934 0 0
3:52 am 03:52 Cloudy 64 17.8 53 11.7 68 68 SE 7 11 29.74 1007 10 16.0934 0 0
4:52 am 04:52 Mostly Cloudy 63 17.2 51 10.6 65 65 SSE 12 19 29.74 1007 10 16.0934 0 0
5:52 am 05:52 Mostly Cloudy 63 17.2 51 10.6 65 65 S 12 19 29.72 1007 10 16.0934 0 0
6:52 am 06:52 Cloudy 62 16.7 51 10.6 67 67 S 8 13 29.74 1007 10 16.0934 0 0
7:52 am 07:52 Mostly Cloudy 60 15.6 51 10.6 72 72 S 7 11 29.75 1007 7 11.26538 0 0
8:52 am 08:52 Cloudy 64 17.8 54 12.2 70 70 S 13 20 29.74 1007 10 16.0934 0 0
9:52 am 09:52 Cloudy with Light Rain 65 18.3 53 11.7 66 66 SSE 15 24 29.72 1007 10 16.0934 0.001 0.001
10:52 am 10:52 Cloudy 66 18.9 53 11.7 63 63 S 17 28 29.72 1007 10 16.0934 0.001 0.001
11:52 am 11:52 Cloudy with Light Rain 66 18.9 54 12.2 65 65 SSE 16 26 29.71 1006 10 16.0934 0.001 0.001
12:52 pm 12:52 Cloudy with Light Rain 64 17.8 55 12.8 73 73 SSE 18 30 29.71 1006 10 16.0934 0.01 0.254
1:52 pm 13:52 Cloudy 65 18.3 56 13.3 73 73 SSE 16 26 29.69 1006 10 16.0934 0.001 0.001
2:52 pm 14:52 Cloudy 65 18.3 55 12.8 70 70 SSE 21 33 29.68 1005 10 16.0934 0.001 0.001
3:52 pm 15:52 Cloudy 62 16.7 57 13.9 84 84 S 18 30 29.66 1005 10 16.0934 0.01 0.254
4:52 pm 16:52 Mostly Cloudy 66 18.9 57 13.9 73 73 SE 26 43 29.63 1004 10 16.0934 0 0
5:52 pm 17:52 Mostly Cloudy 68 20 56 13.3 65 65 SSE 21 33 29.63 1003 10 16.0934 0 0
6:52 pm 18:52 Mostly Cloudy 67 19.4 56 13.3 68 68 SSE 18 30 29.63 1003 10 16.0934 0 0
7:52 pm 19:52 Mostly Cloudy 64 17.8 53 11.7 68 68 SSE 16 26 29.65 1004 10 16.0934 0.001 0.001
8:52 pm 20:52 Partly Cloudy 59 15 52 11.1 78 78 SSE 8 13 29.68 1005 10 16.0934 0 0
9:52 pm 21:52 Mostly Cloudy 58 14.4 53 11.7 84 84 S 6 9 29.7 1006 10 16.0934 0 0
10:52 pm 22:52 Cloudy 60 15.6 56 13.3 86 86 S 7 11 29.71 1006 10 16.0934 0.001 0.001
11:52 pm 23:52 Cloudy 60 15.6 56 13.3 86 86 SW 6 9 29.73 1007 10 16.0934 0 0

Powered by AerisWeather